Location: Campillo
(40.8621°N, 4.2488°W)
Time: 11:16:32
(UTC+00:00)

OE (NEXTSAT) - Pass Details

Date: 11 May 2021
Orbit: 426 x 431 km, 46.0° (Epoch: 13 June)

Event Time Altitude Azimuth Distance (km) Brightness Sun altitude
Rises 21:31:25 0° 294° (WNW) 2,397 9.2 -20.1°
Reaches altitude 10° 21:33:33 10° 297° (WNW) 1,530 8.1 -20.3°
Maximum altitude 21:36:59 67° 20° (NNE) 469 4.5 -20.8°
Enters shadow 21:37:04 67° 30° (NNE) 470 4.4 -20.8°
